AirNav   Pilot Hours Calculator
 
 690 users online  

NH84 Northwood Airport
Northwood, New Hampshire, USA

GOING TO NORTHWOOD?


FAA INFORMATION EFFECTIVE 02 DECEMBER 2021

Location

FAA Identifier: NH84
Lat/Long: 43-12-27.3200N 071-13-16.1600W
43-12.455333N 071-13.269333W
43.2075889,-71.2211556
(estimated)
Elevation: 640 ft. / 195 m (estimated)
Variation: 16W (1995)
From city: 1 mile SE of NORTHWOOD, NH
Time zone: UTC -5 (UTC -4 during Daylight Saving Time)
Zip code: 03261

Airport Operations

Airport use: Private use. Permission required prior to landing
Activation date: 03/2000
Control tower: no
ARTCC: BOSTON CENTER
FSS: BANGOR FLIGHT SERVICE STATION
Attendance: UNATNDD
Wind indicator: yes
Segmented circle: no

Airport Communications

WX ASOS at CON (12 nm W): 132.325 (603-224-6558)
WX ASOS at DAW (14 nm E): 135.275 (603-332-7814)
WX ASOS at MHT (19 nm SW): 119.55 (603-621-1766)

Nearby radio navigation aids

VOR radial/distance  VOR name  Freq  Var
CONr108/15.5CONCORD VOR/DME112.9015W
MHTr033/21.4MANCHESTER VOR/DME114.4015W
ENEr261/29.6KENNEBUNK VOR/DME117.1017W

 
NDB name  Hdg/Dist  Freq  Var  ID
EPSOM078/11.421616WCO -.-. ---
ROLLINS283/17.226016WESG . ... --.

Airport Services

Runway Information

Runway 12/30

Dimensions: 2300 x 75 ft. / 701 x 23 m
Surface: turf
RUNWAY 12  RUNWAY 30
Traffic pattern: leftleft
Obstructions: 50 ft. tree, 150 ft. from runway50 ft. trees, 150 ft. from runway

Airport Ownership and Management from official FAA records

Ownership: Privately-owned
Owner: CHARLES THERRIAULT, JR
266 HARMONY RD
NORTHWOOD, NH 03261
Phone 603-942-7077
Manager: CHARLES THERRIAULT, JR
266 HARMONY RD
NORTHWOOD, NH 03261
Phone 603-942-7077

Airport Operational Statistics

Aircraft based on the field: 1
Single engine airplanes: 1
    

Additional Remarks

FOR CD CTC BOSTON APCH AT 603-594-5551.

Instrument Procedures

There are no published instrument procedures at NH84.

Some nearby airports with instrument procedures:

KCON - Concord Municipal Airport (12 nm W)
KDAW - Skyhaven Airport (14 nm E)
KMHT - Manchester Boston Regional Airport (19 nm SW)
KPSM - Portsmouth International Airport at Pease (19 nm SE)
3B4 - Littlebrook Air Park (20 nm E)
 
Loc | Ops | Rwys | IFR | FBO | Links
Com | Nav | Svcs | Stats | Notes
Area around NH84 (Northwood Airport)
 
Road maps at: MapQuest Bing Google
 
Aerial photo
No photo
 
Sectional chart

 
Airport distance calculator
Flying to Northwood Airport? Find the distance to fly.

From to NH84

Sunrise and sunset
Times for 07-Dec-2021
 Local
(UTC-5)
 Zulu
(UTC)
Morning civil twilight06:3211:32
Sunrise07:0412:04
Sunset16:0921:09
Evening civil twilight16:4121:41

Current date and time
Zulu (UTC)  07-Dec-2021 05:44:42
Local (UTC-5)  07-Dec-2021 00:44:42
 
METAR
KCON 
12nm W 
070451Z AUTO 28015G24KT 10SM SCT090 BKN110 05/M04 A2965 RMK AO2 PK WND 28035/0356 SLP043 T00501039 401330017 TSNO
KDAW 
14nm E 
070451Z AUTO 27010G21KT 220V300 10SM OVC065 07/M01 A2961 RMK AO2 RAB03E20 SLP027 P0000 T00671006 401330006 TSNO
KMHT 
19nm SW 
070453Z 29015G23KT 10SM SCT075 OVC090 07/M03 A2968 RMK AO2 PK WND 29029/0424 RAE0357 PRESRR SLP065 P0000 T00671028 401500039
KPSM 
20nm SE 
070456Z 27021G31KT 10SM -RA SCT029 OVC080 07/M01 A2962 RMK AO2A PK WND 26031/51 SLP033 P0001 T00651009 401560063
KLCI 
23nm N 
070456Z AUTO 26017G25KT 10SM SCT046 BKN100 BKN110 05/M02 A2962 RMK AO2 PK WND 24026/0416 SLP033 T00501022 401280006
TAF
KCON 
12nm W 
070239Z 0703/0724 26020G30KT P6SM OVC040 FM070600 27012G20KT P6SM SCT040
KMHT 
19nm SW 
070344Z 0704/0724 28016G27KT 6SM -SHRA BR OVC030 FM070500 26015G24KT P6SM OVC040 FM071300 28013G21KT P6SM FEW250
KPSM 
20nm SE 
070313Z 0703/0724 29020G37KT 5SM -SHRA BR OVC025 WS020/20045KT FM070500 26015G25KT 6SM BR OVC035 FM071300 27012G21KT P6SM FEW250
NOTAMs
Click for the latest NOTAMs
NOTAMs are issued by the DoD/FAA and will open in a separate window not controlled by AirNav.

 

 
 

Would you like to see your business listed on this page?

 If your business provides an interesting product or service to pilots, flight crews, aircraft, or users of the Northwood Airport, you should consider listing it here.  To start the listing process, click on the button below
 
Add a business
 

Other Pages about Northwood Airport

Update a link
 
Copyright © AirNav, LLC. All rights reserved. Privacy Policy  Contact